Time,TemperatureF,DewpointF,PressureIn,WindDirection,WindDirectionDegrees,WindSpeedMPH,WindSpeedGustMPH,Humidity,HourlyPrecipIn,Conditions,Clouds,dailyrainin,SoftwareType,DateUTC
2013-01-23 00:02:00,20.0,8.0,30.16,SSW,207,9.0,17.0,58,0.00,,,0.00,,2013-01-23 07:02:00,
2013-01-23 00:11:00,20.0,8.0,30.16,SSW,207,9.0,17.0,58,0.00,,,0.00,,2013-01-23 07:11:00,
2013-01-23 00:22:00,24.0,9.0,30.16,SW,214,13.0,22.0,52,0.00,,,0.00,,2013-01-23 07:22:00,
2013-01-23 00:32:00,24.0,8.0,30.16,SW,221,8.0,17.0,50,0.00,,,0.00,,2013-01-23 07:32:00,
2013-01-23 00:42:00,24.0,8.0,30.16,SW,221,8.0,17.0,50,0.00,,,0.00,,2013-01-23 07:42:00,
2013-01-23 00:53:00,25.0,9.0,30.17,WSW,244,13.0,20.0,49,0.00,,,0.00,,2013-01-23 07:53:00,
2013-01-23 01:01:00,25.0,8.0,30.16,SW,217,14.0,20.0,48,0.00,,,0.00,,2013-01-23 08:01:00,
2013-01-23 01:11:00,25.0,8.0,30.16,SW,217,14.0,20.0,48,0.00,,,0.00,,2013-01-23 08:11:00,
2013-01-23 01:22:00,24.0,8.0,30.15,SW,235,19.0,26.0,50,0.00,,,0.00,,2013-01-23 08:22:00,
2013-01-23 01:32:00,24.0,9.0,30.15,SW,219,19.0,23.0,52,0.00,,,0.00,,2013-01-23 08:32:00,
2013-01-23 01:42:00,24.0,9.0,30.15,SW,219,19.0,23.0,52,0.00,,,0.00,,2013-01-23 08:42:00,
2013-01-23 01:53:00,24.0,9.0,30.15,WSW,238,19.0,24.0,52,0.00,,,0.00,,2013-01-23 08:53:00,
2013-01-23 02:02:00,24.0,9.0,30.14,SW,227,17.0,28.0,52,0.00,,,0.00,,2013-01-23 09:02:00,
2013-01-23 02:12:00,24.0,9.0,30.14,SW,227,17.0,28.0,52,0.00,,,0.00,,2013-01-23 09:12:00,
2013-01-23 02:22:00,23.0,8.0,30.14,SW,228,21.0,27.0,52,0.00,,,0.00,,2013-01-23 09:22:00,
2013-01-23 02:32:00,25.0,8.0,30.14,SW,220,20.0,26.0,48,0.00,,,0.00,,2013-01-23 09:32:00,
2013-01-23 02:43:00,25.0,8.0,30.14,SW,220,20.0,26.0,48,0.00,,,0.00,,2013-01-23 09:43:00,
2013-01-23 02:53:00,23.0,8.0,30.14,SW,230,19.0,27.0,52,0.00,,,0.00,,2013-01-23 09:53:00,
2013-01-23 03:02:00,24.0,9.0,30.15,SW,229,18.0,26.0,51,0.00,,,0.00,,2013-01-23 10:02:00,
2013-01-23 03:12:00,24.0,9.0,30.15,SW,229,18.0,26.0,51,0.00,,,0.00,,2013-01-23 10:12:00,
2013-01-23 03:22:00,22.0,8.0,30.14,SSW,213,19.0,25.0,54,0.00,,,0.00,,2013-01-23 10:22:00,
2013-01-23 03:32:00,22.0,8.0,30.14,SW,226,18.0,26.0,55,0.00,,,0.00,,2013-01-23 10:32:00,
2013-01-23 03:42:00,22.0,8.0,30.14,SW,226,18.0,26.0,55,0.00,,,0.00,,2013-01-23 10:42:00,
2013-01-23 03:53:00,22.0,8.0,30.14,WSW,238,17.0,25.0,54,0.00,,,0.00,,2013-01-23 10:53:00,
2013-01-23 04:02:00,21.0,8.0,30.15,South,174,12.0,25.0,57,0.00,,,0.00,,2013-01-23 11:02:00,
2013-01-23 04:11:00,21.0,8.0,30.15,South,174,12.0,25.0,57,0.00,,,0.00,,2013-01-23 11:11:00,
2013-01-23 04:22:00,19.0,7.0,30.16,SSW,206,4.0,16.0,60,0.00,,,0.00,,2013-01-23 11:22:00,
2013-01-23 04:32:00,18.0,7.0,30.16,South,187,9.0,16.0,61,0.00,,,0.00,,2013-01-23 11:32:00,
2013-01-23 04:42:00,18.0,7.0,30.16,South,187,9.0,16.0,61,0.00,,,0.00,,2013-01-23 11:42:00,
2013-01-23 04:53:00,20.0,8.0,30.15,SW,221,17.0,25.0,59,0.00,,,0.00,,2013-01-23 11:53:00,
2013-01-23 05:02:00,23.0,8.0,30.14,SW,234,16.0,22.0,51,0.00,,,0.00,,2013-01-23 12:02:00,
2013-01-23 05:12:00,23.0,8.0,30.14,SW,234,16.0,22.0,51,0.00,,,0.00,,2013-01-23 12:12:00,
2013-01-23 05:22:00,25.0,8.0,30.14,SW,230,18.0,25.0,47,0.00,,,0.00,,2013-01-23 12:22:00,
2013-01-23 05:32:00,27.0,6.0,30.14,SW,231,18.0,27.0,40,0.00,,,0.00,,2013-01-23 12:32:00,
2013-01-23 05:42:00,27.0,6.0,30.14,SW,231,18.0,27.0,40,0.00,,,0.00,,2013-01-23 12:42:00,
2013-01-23 05:53:00,28.0,6.0,30.14,WSW,237,18.0,24.0,39,0.00,,,0.00,,2013-01-23 12:53:00,
2013-01-23 06:03:00,26.0,7.0,30.14,SW,221,17.0,22.0,44,0.00,,,0.00,,2013-01-23 13:03:00,
2013-01-23 06:12:00,26.0,7.0,30.14,SW,221,17.0,22.0,44,0.00,,,0.00,,2013-01-23 13:12:00,
2013-01-23 06:22:00,27.0,6.0,30.14,WSW,242,18.0,24.0,40,0.00,,,0.00,,2013-01-23 13:22:00,
2013-01-23 06:33:00,27.0,6.0,30.13,WSW,252,20.0,28.0,40,0.00,,,0.00,,2013-01-23 13:33:00,
2013-01-23 06:53:00,25.0,6.0,30.13,WSW,243,19.0,27.0,44,0.00,,,0.00,,2013-01-23 13:53:00,
2013-01-23 07:02:00,23.0,7.0,30.13,SW,227,20.0,26.0,50,0.00,,,0.00,,2013-01-23 14:02:00,
2013-01-23 07:12:00,23.0,7.0,30.13,SW,227,20.0,26.0,50,0.00,,,0.00,,2013-01-23 14:12:00,
2013-01-23 07:23:00,23.0,7.0,30.13,WSW,238,18.0,26.0,50,0.00,,,0.00,,2013-01-23 14:23:00,
2013-01-23 07:33:00,23.0,7.0,30.13,SW,224,18.0,26.0,49,0.00,,,0.00,,2013-01-23 14:33:00,
2013-01-23 07:53:00,25.0,6.0,30.13,SW,235,16.0,23.0,44,0.00,,,0.00,,2013-01-23 14:53:00,
2013-01-23 08:02:00,26.0,7.0,30.14,WSW,248,17.0,24.0,43,0.00,,,0.00,,2013-01-23 15:02:00,
2013-01-23 08:12:00,26.0,7.0,30.14,WSW,248,17.0,24.0,43,0.00,,,0.00,,2013-01-23 15:12:00,
2013-01-23 08:22:00,28.0,6.0,30.13,SW,233,20.0,26.0,38,0.00,,,0.00,,2013-01-23 15:22:00,
2013-01-23 08:32:00,29.0,7.0,30.13,WSW,254,18.0,28.0,38,0.00,,,0.00,,2013-01-23 15:32:00,
2013-01-23 08:53:00,24.0,7.0,30.14,WSW,249,18.0,26.0,48,0.00,,,0.00,,2013-01-23 15:53:00,
2013-01-23 09:02:00,25.0,8.0,30.13,SW,230,17.0,26.0,47,0.00,,,0.00,,2013-01-23 16:02:00,
2013-01-23 09:12:00,25.0,8.0,30.13,SW,230,17.0,26.0,47,0.00,,,0.00,,2013-01-23 16:12:00,
2013-01-23 09:22:00,25.0,8.0,30.13,SW,232,19.0,27.0,47,0.00,,,0.00,,2013-01-23 16:22:00,
2013-01-23 09:32:00,26.0,7.0,30.13,SW,225,22.0,27.0,43,0.00,,,0.00,,2013-01-23 16:32:00,
2013-01-23 09:52:00,25.0,7.0,30.13,WSW,242,21.0,28.0,46,0.00,,,0.00,,2013-01-23 16:52:00,
2013-01-23 10:02:00,26.0,8.0,30.13,SW,225,20.0,30.0,46,0.00,,,0.00,,2013-01-23 17:02:00,
2013-01-23 10:12:00,26.0,8.0,30.13,SW,225,20.0,30.0,46,0.00,,,0.00,,2013-01-23 17:12:00,
2013-01-23 10:22:00,28.0,7.0,30.14,SW,236,23.0,30.0,41,0.00,,,0.00,,2013-01-23 17:22:00,
2013-01-23 10:33:00,28.0,7.0,30.14,WSW,248,20.0,29.0,41,0.00,,,0.00,,2013-01-23 17:33:00,
2013-01-23 10:42:00,28.0,7.0,30.14,WSW,248,20.0,29.0,41,0.00,,,0.00,,2013-01-23 17:42:00,
2013-01-23 10:53:00,28.0,8.0,30.14,WSW,250,19.0,26.0,43,0.00,,,0.00,,2013-01-23 17:53:00,
2013-01-23 11:03:00,28.0,8.0,30.14,WSW,240,22.0,27.0,42,0.00,,,0.00,,2013-01-23 18:03:00,
2013-01-23 11:12:00,28.0,8.0,30.14,WSW,240,22.0,27.0,42,0.00,,,0.00,,2013-01-23 18:12:00,
2013-01-23 11:22:00,25.0,8.0,30.15,SW,235,20.0,27.0,48,0.00,,,0.00,,2013-01-23 18:22:00,
2013-01-23 11:32:00,25.0,8.0,30.15,SW,235,20.0,27.0,48,0.00,,,0.00,,2013-01-23 18:32:00,
2013-01-23 11:43:00,26.0,8.0,30.15,WSW,238,19.0,27.0,45,0.00,,,0.00,,2013-01-23 18:43:00,
2013-01-23 11:53:00,26.0,8.0,30.15,WSW,240,17.0,27.0,45,0.00,,,0.00,,2013-01-23 18:53:00,
2013-01-23 12:02:00,27.0,9.0,30.14,SW,232,21.0,28.0,45,0.00,,,0.00,,2013-01-23 19:02:00,
2013-01-23 12:12:00,27.0,9.0,30.14,SW,232,21.0,28.0,45,0.00,,,0.00,,2013-01-23 19:12:00,
2013-01-23 12:22:00,26.0,8.0,30.14,SW,231,21.0,27.0,46,0.00,,,0.00,,2013-01-23 19:22:00,
2013-01-23 12:32:00,27.0,9.0,30.13,SW,233,18.0,28.0,47,0.00,,,0.00,,2013-01-23 19:32:00,
2013-01-23 12:42:00,27.0,9.0,30.13,SW,233,18.0,28.0,47,0.00,,,0.00,,2013-01-23 19:42:00,
2013-01-23 12:53:00,27.0,9.0,30.12,SW,222,22.0,27.0,45,0.00,,,0.00,,2013-01-23 19:53:00,
2013-01-23 13:02:00,27.0,9.0,30.12,SW,224,22.0,28.0,46,0.00,,,0.00,,2013-01-23 20:02:00,
2013-01-23 13:12:00,27.0,9.0,30.12,SW,224,22.0,28.0,46,0.00,,,0.00,,2013-01-23 20:12:00,
2013-01-23 13:22:00,29.0,9.0,30.11,SW,219,19.0,29.0,43,0.00,,,0.00,,2013-01-23 20:22:00,
2013-01-23 13:32:00,27.0,10.0,30.11,SW,236,21.0,26.0,48,0.00,,,0.00,,2013-01-23 20:32:00,
2013-01-23 13:42:00,27.0,10.0,30.11,SW,236,21.0,26.0,48,0.00,,,0.00,,2013-01-23 20:42:00,
2013-01-23 13:53:00,28.0,9.0,30.09,SW,224,22.0,30.0,45,0.00,,,0.00,,2013-01-23 20:53:00,
2013-01-23 14:02:00,29.0,10.0,30.09,SW,229,23.0,30.0,45,0.00,,,0.00,,2013-01-23 21:02:00,
2013-01-23 14:12:00,29.0,10.0,30.09,SW,229,23.0,30.0,45,0.00,,,0.00,,2013-01-23 21:12:00,
2013-01-23 14:22:00,30.0,11.0,30.09,West,260,19.0,27.0,45,0.00,,,0.00,,2013-01-23 21:22:00,
2013-01-23 14:32:00,29.0,10.0,30.09,SW,227,20.0,26.0,45,0.00,,,0.00,,2013-01-23 21:32:00,
2013-01-23 14:42:00,29.0,10.0,30.09,SW,227,20.0,26.0,45,0.00,,,0.00,,2013-01-23 21:42:00,
2013-01-23 14:53:00,29.0,10.0,30.09,SW,223,21.0,27.0,44,0.00,,,0.00,,2013-01-23 21:53:00,
2013-01-23 15:02:00,29.0,10.0,30.08,WSW,248,20.0,27.0,45,0.00,,,0.00,,2013-01-23 22:02:00,
2013-01-23 15:12:00,29.0,10.0,30.08,WSW,248,20.0,27.0,45,0.00,,,0.00,,2013-01-23 22:12:00,
2013-01-23 15:22:00,30.0,11.0,30.09,WSW,238,20.0,29.0,44,0.00,,,0.00,,2013-01-23 22:22:00,
2013-01-23 15:32:00,30.0,11.0,30.09,SW,233,20.0,26.0,44,0.00,,,0.00,,2013-01-23 22:32:00,
2013-01-23 15:42:00,30.0,11.0,30.09,SW,233,20.0,26.0,44,0.00,,,0.00,,2013-01-23 22:42:00,
2013-01-23 15:53:00,30.0,10.0,30.09,WSW,240,18.0,28.0,43,0.00,,,0.00,,2013-01-23 22:53:00,
2013-01-23 16:02:00,31.0,11.0,30.10,WSW,240,17.0,24.0,42,0.00,,,0.00,,2013-01-23 23:02:00,
2013-01-23 16:12:00,31.0,11.0,30.10,WSW,240,17.0,24.0,42,0.00,,,0.00,,2013-01-23 23:12:00,
2013-01-23 16:22:00,32.0,10.0,30.10,SW,232,18.0,24.0,40,0.00,,,0.00,,2013-01-23 23:22:00,
2013-01-23 16:32:00,32.0,12.0,30.10,SW,229,17.0,24.0,42,0.00,,,0.00,,2013-01-23 23:32:00,
2013-01-23 16:42:00,32.0,12.0,30.10,SW,229,17.0,24.0,42,0.00,,,0.00,,2013-01-23 23:42:00,
2013-01-23 16:53:00,32.0,10.0,30.11,SW,233,19.0,26.0,40,0.00,,,0.00,,2013-01-23 23:53:00,
2013-01-23 17:02:00,32.0,11.0,30.11,SW,224,16.0,25.0,41,0.00,,,0.00,,2013-01-24 00:02:00,
2013-01-23 17:11:00,32.0,11.0,30.11,SW,224,16.0,25.0,41,0.00,,,0.00,,2013-01-24 00:11:00,
2013-01-23 17:22:00,32.0,9.0,30.11,WSW,240,19.0,26.0,38,0.00,,,0.00,,2013-01-24 00:22:00,
2013-01-23 17:32:00,33.0,9.0,30.11,SW,234,20.0,25.0,36,0.00,,,0.00,,2013-01-24 00:32:00,
2013-01-23 17:42:00,33.0,9.0,30.11,SW,234,20.0,25.0,36,0.00,,,0.00,,2013-01-24 00:42:00,
2013-01-23 17:53:00,33.0,10.0,30.10,WSW,246,18.0,26.0,38,0.00,,,0.00,,2013-01-24 00:53:00,
2013-01-23 18:02:00,32.0,10.0,30.09,SW,229,20.0,26.0,39,0.00,,,0.00,,2013-01-24 01:02:00,
2013-01-23 18:12:00,32.0,10.0,30.09,SW,229,20.0,26.0,39,0.00,,,0.00,,2013-01-24 01:12:00,
2013-01-23 18:22:00,31.0,10.0,30.09,WSW,237,17.0,26.0,41,0.00,,,0.00,,2013-01-24 01:22:00,
2013-01-23 18:32:00,31.0,11.0,30.09,WSW,237,18.0,26.0,42,0.00,,,0.00,,2013-01-24 01:32:00,
2013-01-23 18:42:00,31.0,11.0,30.09,WSW,237,18.0,26.0,42,0.00,,,0.00,,2013-01-24 01:42:00,
2013-01-23 18:52:00,31.0,10.0,30.09,SW,236,19.0,24.0,41,0.00,,,0.00,,2013-01-24 01:52:00,
2013-01-23 19:02:00,30.0,11.0,30.09,SW,217,17.0,23.0,45,0.00,,,0.00,,2013-01-24 02:02:00,
2013-01-23 19:11:00,30.0,11.0,30.09,SW,217,17.0,23.0,45,0.00,,,0.00,,2013-01-24 02:11:00,
2013-01-23 19:22:00,30.0,11.0,30.08,SW,235,18.0,24.0,44,0.00,,,0.00,,2013-01-24 02:22:00,
2013-01-23 19:32:00,32.0,10.0,30.08,WSW,244,21.0,27.0,40,0.00,,,0.00,,2013-01-24 02:32:00,
2013-01-23 19:42:00,32.0,10.0,30.08,WSW,244,21.0,27.0,40,0.00,,,0.00,,2013-01-24 02:42:00,
2013-01-23 19:52:00,32.0,10.0,30.08,WSW,244,21.0,27.0,40,0.00,,,0.00,,2013-01-24 02:52:00,
2013-01-23 20:02:00,32.0,10.0,30.09,SW,236,18.0,25.0,40,0.00,,,0.00,,2013-01-24 03:02:00,
2013-01-23 20:11:00,32.0,10.0,30.09,SW,236,18.0,25.0,40,0.00,,,0.00,,2013-01-24 03:11:00,
2013-01-23 20:22:00,30.0,10.0,30.08,SW,233,16.0,22.0,42,0.00,,,0.00,,2013-01-24 03:22:00,
2013-01-23 20:32:00,29.0,10.0,30.07,SW,235,18.0,24.0,45,0.00,,,0.00,,2013-01-24 03:32:00,
2013-01-23 20:42:00,29.0,10.0,30.07,SW,235,18.0,24.0,45,0.00,,,0.00,,2013-01-24 03:42:00,
2013-01-23 20:52:00,29.0,10.0,30.08,WSW,240,19.0,28.0,45,0.00,,,0.00,,2013-01-24 03:52:00,
2013-01-23 21:02:00,31.0,10.0,30.08,WSW,242,20.0,26.0,41,0.00,,,0.00,,2013-01-24 04:02:00,
2013-01-23 21:12:00,31.0,10.0,30.08,WSW,242,20.0,26.0,41,0.00,,,0.00,,2013-01-24 04:12:00,
2013-01-23 21:22:00,31.0,10.0,30.09,WSW,238,19.0,30.0,41,0.00,,,0.00,,2013-01-24 04:22:00,
2013-01-23 21:32:00,29.0,9.0,30.09,WSW,249,19.0,23.0,43,0.00,,,0.00,,2013-01-24 04:32:00,
2013-01-23 21:42:00,29.0,9.0,30.09,WSW,249,19.0,23.0,43,0.00,,,0.00,,2013-01-24 04:42:00,
2013-01-23 21:52:00,30.0,10.0,30.09,WSW,238,17.0,25.0,43,0.00,,,0.00,,2013-01-24 04:52:00,
2013-01-23 22:03:00,32.0,10.0,30.09,SW,216,19.0,25.0,39,0.00,,,0.00,,2013-01-24 05:03:00,
2013-01-23 22:12:00,32.0,10.0,30.09,SW,216,19.0,25.0,39,0.00,,,0.00,,2013-01-24 05:12:00,
2013-01-23 22:22:00,31.0,10.0,30.09,WSW,250,17.0,24.0,41,0.00,,,0.00,,2013-01-24 05:22:00,
2013-01-23 22:32:00,32.0,10.0,30.08,WSW,237,18.0,27.0,40,0.00,,,0.00,,2013-01-24 05:32:00,
2013-01-23 22:53:00,32.0,10.0,30.07,SW,224,18.0,27.0,40,0.00,,,0.00,,2013-01-24 05:53:00,
2013-01-23 23:02:00,31.0,11.0,30.08,WSW,251,18.0,25.0,42,0.00,,,0.00,,2013-01-24 06:02:00,
2013-01-23 23:12:00,31.0,11.0,30.08,WSW,251,18.0,25.0,42,0.00,,,0.00,,2013-01-24 06:12:00,
2013-01-23 23:22:00,31.0,11.0,30.08,SW,234,17.0,24.0,42,0.00,,,0.00,,2013-01-24 06:22:00,
2013-01-23 23:32:00,30.0,10.0,30.08,WSW,245,17.0,25.0,43,0.00,,,0.00,,2013-01-24 06:32:00,
2013-01-23 23:42:00,30.0,10.0,30.08,WSW,245,17.0,25.0,43,0.00,,,0.00,,2013-01-24 06:42:00,
2013-01-23 23:52:00,30.0,11.0,30.07,SW,232,18.0,23.0,44,0.00,,,0.00,,2013-01-24 06:52:00,